Погода в Осе

Россия / Пермский край     57°16′46″N   55°28′07″E
темп.,
°C
ветер,
м/с
пор.,
м/с
влажн.,
%
обл.,
%
осадки,
мм/ч
давл.,
гПа
погр.,
м
16 апреля, пт
пт1623:00+10с499115 0.7 1020262
02:00+7ссв6118397 0.0 1022505
05:00+5св5108295 0.0 1024559
08:00+5ссв51071100 0.0 1026554
11:00+7св576657 0.0 1026805
14:00+10всв56505 0.0 10271230
17:00+11св55425 0.0 10271430
20:00+8ссв48474 0.0 1027220
17 апреля, сб
сб1723:00+4ссв49620 0.0 1028249
02:00+2ссв37695 0.0 1029176
05:000ссв23735 0.0 102960
08:00+2ссв376211 0.0 1029237
11:00+7ссв45465 0.0 1028965
14:00+9с44415 0.0 10271401
17:00+10ссз45415 0.0 10251570
20:00+8сз33575 0.0 102545
18 апреля, вс
вс1823:00+5зсз23694 0.0 102539
02:00+3зсз23785 0.0 102438
05:00+2сз22875 0.0 102433
08:00+3с39825 0.0 1025553
11:00+4ссв675092 0.1 1027971
14:00+6ссв56355 0.0 10281851
17:00+6всв663689 0.0 10292051
20:00+4всв584242 0.0 1031433
19 апреля, пн
пн1923:00+1в49513 0.0 1033275
02:00−1в49511 0.0 1035362
05:00−2в49490 0.0 1037354
08:000в58370 0.0 1038611
11:00+3в57270 0.0 10381527
14:00+5в56230 0.0 10371696
17:00+5в45250 0.0 10371655
20:00+3всв34410 0.0 103780
20 апреля, вт
вт2023:000в22440 0.0 103814
02:00−1в11450 0.0 103810
05:00−1юв11450 0.0 103910
08:00+1ю11395 0.0 1039144
11:00+5ююз10295 0.0 1038822
14:00+7зюз00274 0.0 10361087
17:00+9зсз11250 0.0 10351143
20:00+6ююз00370 0.0 103410